timestamp,wind_dir_avg,wind_spd_avg,wind_spd_max_dir,wind_spd_gust,battery_voltage,lat,long
2023-07-02 00:04:00+00:00,205.0,5.56,201.0,6.02,12.73,47.59359,-54.27349
2023-07-02 00:14:00+00:00,201.0,5.73,202.0,5.74,12.41,47.59359,-54.27349
2023-07-02 00:24:00+00:00,315.0,0.01,204.0,0.0,12.41,47.59359,-54.27349
2023-07-02 00:34:00+00:00,315.0,0.01,204.0,0.0,12.41,47.59359,-54.27349
2023-07-02 00:44:00+00:00,315.0,0.01,204.0,0.0,12.41,47.59359,-54.27349
2023-07-02 00:54:00+00:00,315.0,0.01,204.0,0.0,12.41,47.59359,-54.27349
2023-07-02 01:04:00+00:00,315.0,0.01,205.0,0.0,12.41,47.59359,-54.27349
2023-07-02 01:14:00+00:00,315.0,0.01,205.0,0.0,12.41,47.59359,-54.27349
2023-07-02 01:24:00+00:00,315.0,0.01,202.0,0.0,12.41,47.59359,-54.27349
2023-07-02 01:34:00+00:00,207.0,5.67,204.0,6.0,12.41,47.59359,-54.27349
2023-07-02 01:44:00+00:00,210.0,5.29,209.0,5.45,12.41,47.59359,-54.27349
2023-07-02 01:54:00+00:00,211.0,8.74,211.0,8.89,12.41,47.59359,-54.27349
2023-07-02 02:04:00+00:00,200.0,6.76,201.0,6.77,12.41,47.59359,-54.27349
2023-07-02 02:14:00+00:00,315.0,0.01,200.0,0.0,12.33,47.59359,-54.27349
2023-07-02 02:24:00+00:00,315.0,0.01,209.0,0.0,12.33,47.59359,-54.27349
2023-07-02 02:34:00+00:00,315.0,0.01,222.0,0.0,12.33,47.59359,-54.27349
2023-07-02 02:44:00+00:00,315.0,0.01,222.0,0.0,12.33,47.59359,-54.27349
2023-07-02 02:54:00+00:00,315.0,0.01,222.0,0.0,12.33,47.59359,-54.27349
2023-07-02 03:04:00+00:00,315.0,0.01,205.0,0.0,12.33,47.59359,-54.27349
2023-07-02 03:14:01+00:00,315.0,0.01,225.0,0.0,12.33,47.59359,-54.27349
2023-07-02 03:24:01+00:00,219.0,7.75,217.0,8.14,12.33,47.59359,-54.27349
2023-07-02 03:34:01+00:00,222.0,7.04,223.0,7.06,12.33,47.59359,-54.27349
2023-07-02 03:44:01+00:00,315.0,0.01,222.0,0.0,12.33,47.59359,-54.27349
2023-07-02 03:54:01+00:00,315.0,0.01,222.0,0.0,12.33,47.59359,-54.27349
2023-07-02 04:04:01+00:00,315.0,0.01,222.0,0.0,12.33,47.59359,-54.27349
2023-07-02 04:14:00+00:00,315.0,0.01,222.0,0.0,12.33,47.59359,-54.27349
2023-07-02 04:24:00+00:00,315.0,0.01,222.0,0.0,12.33,47.59359,-54.27349
2023-07-02 04:34:00+00:00,315.0,0.01,222.0,0.0,12.33,47.59359,-54.27349
2023-07-02 04:44:00+00:00,315.0,0.01,222.0,0.0,12.33,47.59359,-54.27349
2023-07-02 04:54:00+00:00,315.0,0.01,222.0,0.0,12.33,47.59359,-54.27349
2023-07-02 05:04:00+00:00,315.0,0.01,222.0,0.0,12.33,47.59359,-54.27349
2023-07-02 05:14:01+00:00,315.0,0.01,222.0,0.0,12.33,47.59359,-54.27349
2023-07-02 05:24:01+00:00,315.0,0.01,211.0,0.0,12.33,47.59359,-54.27349
2023-07-02 05:34:01+00:00,211.0,3.46,204.0,4.1,12.33,47.59359,-54.27349
2023-07-02 05:44:01+00:00,210.0,4.52,218.0,4.99,12.33,47.59359,-54.27349
2023-07-02 05:54:01+00:00,315.0,0.01,218.0,0.0,12.33,47.59359,-54.27349
2023-07-02 06:04:01+00:00,212.0,3.67,210.0,4.23,12.33,47.59359,-54.27349
2023-07-02 06:14:00+00:00,217.0,3.74,218.0,4.27,12.25,47.59359,-54.27349
2023-07-02 06:24:00+00:00,227.0,3.38,225.0,3.78,12.25,47.59359,-54.27349
2023-07-02 06:34:00+00:00,219.0,3.18,222.0,3.9,12.25,47.59359,-54.27349
2023-07-02 06:44:00+00:00,213.0,3.78,211.0,4.23,12.25,47.59359,-54.27349
2023-07-02 06:54:00+00:00,196.0,4.11,196.0,4.34,12.25,47.59359,-54.27349
2023-07-02 07:04:00+00:00,199.0,4.26,202.0,4.53,12.25,47.59359,-54.27349
2023-07-02 07:14:01+00:00,193.0,4.76,194.0,5.19,12.25,47.59359,-54.27349
2023-07-02 07:24:01+00:00,195.0,4.54,196.0,4.97,12.25,47.59359,-54.27349
2023-07-02 07:34:01+00:00,203.0,4.69,206.0,5.04,12.25,47.59359,-54.27349
2023-07-02 07:44:01+00:00,196.0,4.27,197.0,4.57,12.25,47.59359,-54.27349
2023-07-02 07:54:01+00:00,207.0,3.25,208.0,3.71,12.25,47.59359,-54.27349
2023-07-02 08:04:01+00:00,198.0,4.32,196.0,4.71,12.25,47.59359,-54.27349
2023-07-02 08:14:01+00:00,315.0,0.01,212.0,0.0,12.17,47.59359,-54.27349
2023-07-02 08:24:01+00:00,315.0,0.01,219.0,0.0,12.17,47.59359,-54.27349
2023-07-02 08:34:01+00:00,210.0,3.95,210.0,4.17,12.17,47.59359,-54.27349
2023-07-02 08:44:01+00:00,216.0,3.62,215.0,3.84,12.17,47.59359,-54.27349
2023-07-02 08:54:01+00:00,315.0,0.01,202.0,0.0,12.17,47.59359,-54.27349
2023-07-02 09:04:01+00:00,217.0,3.59,216.0,3.91,12.17,47.59359,-54.27349
2023-07-02 09:14:01+00:00,216.0,3.62,215.0,3.86,12.25,47.59359,-54.27349
2023-07-02 09:24:01+00:00,180.0,3.08,182.0,3.37,12.25,47.59359,-54.27349
2023-07-02 09:34:01+00:00,178.0,2.47,183.0,2.73,12.25,47.59359,-54.27349
2023-07-02 09:44:01+00:00,205.0,3.08,208.0,3.29,12.25,47.59359,-54.27349
2023-07-02 09:54:01+00:00,194.0,3.77,199.0,4.1,12.25,47.59359,-54.27349
2023-07-02 10:04:01+00:00,191.0,4.18,189.0,4.54,12.25,47.59359,-54.27349
2023-07-02 10:14:00+00:00,200.0,3.61,200.0,4.06,12.41,47.59359,-54.27349
2023-07-02 10:24:00+00:00,233.0,3.59,234.0,4.11,12.41,47.59359,-54.27349
2023-07-02 10:34:00+00:00,223.0,2.56,226.0,2.94,12.41,47.59359,-54.27349
2023-07-02 10:44:00+00:00,235.0,2.24,237.0,2.53,12.41,47.59359,-54.27349
2023-07-02 10:54:00+00:00,237.0,2.72,229.0,3.17,12.41,47.59359,-54.27349
2023-07-02 11:04:00+00:00,315.0,0.01,239.0,0.0,12.41,47.59359,-54.27349
2023-07-02 11:14:01+00:00,244.0,2.3,236.0,3.02,12.89,47.59359,-54.27349
2023-07-02 11:24:01+00:00,229.0,2.39,227.0,2.72,12.89,47.59359,-54.27349
2023-07-02 11:34:01+00:00,229.0,3.41,238.0,4.16,12.89,47.59359,-54.27349
2023-07-02 11:44:01+00:00,216.0,4.39,216.0,5.05,12.89,47.59359,-54.27349
2023-07-02 11:54:01+00:00,232.0,6.2,233.0,6.37,12.89,47.59359,-54.27349
2023-07-02 12:04:01+00:00,315.0,0.01,231.0,0.0,12.89,47.59359,-54.27349
2023-07-02 12:14:01+00:00,315.0,0.01,262.0,0.0,13.37,47.59359,-54.27349
2023-07-02 12:24:01+00:00,187.0,1.41,199.0,1.75,13.37,47.59359,-54.27349
2023-07-02 12:34:01+00:00,198.0,2.03,204.0,2.15,13.37,47.59359,-54.27349
2023-07-02 12:44:01+00:00,183.0,2.1,182.0,2.31,13.37,47.59359,-54.27349
2023-07-02 12:54:01+00:00,315.0,0.01,218.0,0.0,13.37,47.59359,-54.27349
2023-07-02 13:04:01+00:00,315.0,0.01,218.0,0.0,13.37,47.59359,-54.27349
2023-07-02 13:14:01+00:00,213.0,7.67,212.0,8.04,13.53,47.59359,-54.27349
2023-07-02 13:24:01+00:00,214.0,7.44,224.0,8.96,13.53,47.59359,-54.27349
2023-07-02 13:34:01+00:00,214.0,7.82,217.0,8.26,13.53,47.59359,-54.27349
2023-07-02 13:44:01+00:00,214.0,6.4,214.0,7.19,13.53,47.59359,-54.27349
2023-07-02 13:54:01+00:00,219.0,5.63,219.0,6.13,13.53,47.59359,-54.27349
2023-07-02 14:04:01+00:00,217.0,5.22,213.0,5.87,13.53,47.59359,-54.27349
2023-07-02 14:14:00+00:00,213.0,5.73,213.0,6.07,13.6,47.59359,-54.27349
2023-07-02 14:24:00+00:00,205.0,6.16,202.0,6.94,13.6,47.59359,-54.27349
2023-07-02 14:34:00+00:00,212.0,5.92,213.0,6.59,13.6,47.59359,-54.27349
2023-07-02 14:44:00+00:00,214.0,6.42,213.0,6.93,13.6,47.59359,-54.27349
2023-07-02 14:54:00+00:00,214.0,6.22,216.0,6.58,13.6,47.59359,-54.27349
2023-07-02 15:04:00+00:00,224.0,5.57,222.0,6.56,13.6,47.59359,-54.27349
2023-07-02 15:14:01+00:00,221.0,6.06,225.0,6.65,13.6,47.59359,-54.27349
2023-07-02 15:24:01+00:00,213.0,4.92,215.0,5.79,13.6,47.59359,-54.27349
2023-07-02 15:34:01+00:00,215.0,5.37,216.0,6.0,13.6,47.59359,-54.27349
2023-07-02 15:44:01+00:00,214.0,5.99,214.0,6.37,13.6,47.59359,-54.27349
2023-07-02 15:54:01+00:00,211.0,5.96,212.0,6.33,13.6,47.59359,-54.27349
2023-07-02 16:04:01+00:00,208.0,6.56,207.0,7.2,13.6,47.59359,-54.27349
2023-07-02 16:14:00+00:00,201.0,6.0,203.0,6.56,13.68,47.59359,-54.27349
2023-07-02 16:24:00+00:00,197.0,6.74,199.0,7.26,13.68,47.59359,-54.27349
2023-07-02 16:34:00+00:00,202.0,6.39,197.0,7.04,13.68,47.59359,-54.27349
2023-07-02 16:44:00+00:00,206.0,6.43,206.0,7.02,13.68,47.59359,-54.27349
2023-07-02 16:54:00+00:00,207.0,6.14,205.0,6.63,13.68,47.59359,-54.27349
2023-07-02 17:04:00+00:00,202.0,6.03,202.0,6.57,13.68,47.59359,-54.27349
2023-07-02 17:14:00+00:00,192.0,7.36,194.0,8.21,13.68,47.59359,-54.27349
2023-07-02 17:24:00+00:00,201.0,6.95,200.0,7.54,13.68,47.59359,-54.27349
2023-07-02 17:34:00+00:00,202.0,6.72,201.0,7.17,13.68,47.59359,-54.27349
2023-07-02 17:44:00+00:00,205.0,7.49,206.0,8.17,13.68,47.59359,-54.27349
2023-07-02 17:54:00+00:00,201.0,6.79,201.0,7.33,13.68,47.59359,-54.27349
2023-07-02 18:04:00+00:00,198.0,7.28,198.0,8.16,13.68,47.59359,-54.27349
2023-07-02 18:14:00+00:00,198.0,7.36,206.0,8.31,13.6,47.59359,-54.27349
2023-07-02 18:24:00+00:00,196.0,6.75,197.0,7.32,13.6,47.59359,-54.27349
2023-07-02 18:34:00+00:00,198.0,6.32,197.0,7.1,13.6,47.59359,-54.27349
2023-07-02 18:44:00+00:00,205.0,5.65,206.0,6.21,13.6,47.59359,-54.27349
2023-07-02 18:54:00+00:00,204.0,6.98,209.0,7.23,13.6,47.59359,-54.27349
2023-07-02 19:04:00+00:00,202.0,7.28,206.0,8.18,13.6,47.59359,-54.27349
2023-07-02 19:14:00+00:00,200.0,6.46,201.0,7.28,13.6,47.59359,-54.27349
2023-07-02 19:24:00+00:00,203.0,5.98,201.0,6.8,13.6,47.59359,-54.27349
2023-07-02 19:34:00+00:00,203.0,5.51,210.0,6.35,13.6,47.59359,-54.27349
2023-07-02 19:44:00+00:00,208.0,4.9,210.0,5.37,13.6,47.59359,-54.27349
2023-07-02 19:54:00+00:00,202.0,5.53,203.0,6.17,13.6,47.59359,-54.27349
2023-07-02 20:04:00+00:00,201.0,5.98,198.0,6.84,13.6,47.59359,-54.27349
2023-07-02 20:14:00+00:00,203.0,7.01,205.0,7.55,13.68,47.59359,-54.27349
2023-07-02 20:24:00+00:00,203.0,7.11,209.0,7.52,13.68,47.59359,-54.27349
2023-07-02 20:34:00+00:00,206.0,8.15,205.0,8.25,13.68,47.59359,-54.27349
2023-07-02 20:44:00+00:00,315.0,0.01,208.0,0.0,13.68,47.59359,-54.27349
2023-07-02 20:54:00+00:00,315.0,0.01,208.0,0.0,13.68,47.59359,-54.27349
2023-07-02 21:04:00+00:00,315.0,0.01,208.0,0.0,13.68,47.59359,-54.27349
2023-07-02 21:14:00+00:00,315.0,0.01,208.0,0.0,13.44,47.59359,-54.27349
2023-07-02 21:24:00+00:00,315.0,0.01,195.0,0.0,13.44,47.59359,-54.27349
2023-07-02 21:34:00+00:00,315.0,0.01,195.0,0.0,13.44,47.59359,-54.27349
2023-07-02 21:44:00+00:00,197.0,7.09,198.0,7.1,13.44,47.59359,-54.27349
2023-07-02 21:54:00+00:00,226.0,6.86,227.0,6.94,13.44,47.59359,-54.27349
2023-07-02 22:04:00+00:00,215.0,5.08,215.0,5.37,13.44,47.59359,-54.27349
2023-07-02 22:14:01+00:00,213.0,3.63,216.0,4.07,13.13,47.59359,-54.27349
2023-07-02 22:24:01+00:00,212.0,3.81,211.0,4.25,13.13,47.59359,-54.27349
2023-07-02 22:34:01+00:00,212.0,3.59,208.0,4.13,13.13,47.59359,-54.27349
2023-07-02 22:44:01+00:00,315.0,0.01,220.0,0.0,13.13,47.59359,-54.27349
2023-07-02 22:54:01+00:00,205.0,4.28,203.0,4.97,13.13,47.59359,-54.27349
2023-07-02 23:04:01+00:00,315.0,0.01,203.0,0.0,13.13,47.59359,-54.27349
2023-07-02 23:14:00+00:00,315.0,0.01,203.0,0.0,12.65,47.59359,-54.27349
2023-07-02 23:24:00+00:00,205.0,5.26,207.0,6.32,12.65,47.59359,-54.27349
2023-07-02 23:34:00+00:00,210.0,6.23,214.0,6.88,12.65,47.59359,-54.27349
2023-07-02 23:44:00+00:00,212.0,7.02,208.0,7.47,12.65,47.59359,-54.27349
2023-07-02 23:54:00+00:00,213.0,6.78,214.0,6.79,12.65,47.59359,-54.27349
